sat.trackr.live / text

‹ back to catalog

STARLINK-3234

NORAD 50815 · 2022-001N

PAYLOAD ACTIVE UNKNOWN

§ Identity

Operator
Country
US
Launch date
2022-01-06
Launch site
AFETR
Launch vehicle
Mass (kg)
RCS (m²)

Purposes: comms

External: N2YO · Heavens-Above · Gunter

§ Orbital elements

Epoch: 2026-09-19T15:37:18.454656Z

Period
94.01 min
Inclination
53.1612°
Eccentricity
0.0001142
Mean motion
15.31704956 rev/d
Perigee alt
469.9 km
Apogee alt
471.5 km
Semi-major
6,848.9 km
B*
1.6587e-5
RAAN
7.7503°
Arg perigee
88.6410°
Mean anomaly
271.4723°
Rev number
25,983

§ Raw data

STARLINK-32341 50815U 22001N   26262.65090804  .00000150  00000+0  16587-4 0  99902 50815  53.1612   7.7503 0001142  88.6410 271.4723 15.31704956259830

JSON: /api/v1/satellites/50815 · /tle

For live sub-satellite position, see the globe view (requires WebGL).

§ Visibility from observer

Set your observer location to see the next 7 days of passes ≥ 10°. The values pass through the URL so the page stays shareable.

No JS? Fill the form by hand. The geolocation button needs JavaScript.